Time,TemperatureF,DewpointF,PressureIn,WindDirection,WindDirectionDegrees,WindSpeedMPH,WindSpeedGustMPH,Humidity,HourlyPrecipIn,Conditions,Clouds,dailyrainin,SoftwareType,DateUTC
2013-04-23 00:01:00,45.7,30.4,30.41,SE,127,0.0,4.0,55,0.00,,,0.00,Wunderground v.1.15,2013-04-23 04:01:00,
2013-04-23 00:06:00,45.7,31.3,30.41,SE,127,0.0,4.0,57,0.00,,,0.00,Wunderground v.1.15,2013-04-23 04:06:00,
2013-04-23 00:16:00,45.1,30.8,30.41,SE,127,0.0,4.0,57,0.00,,,0.00,Wunderground v.1.15,2013-04-23 04:16:00,
2013-04-23 09:16:00,49.0,35.7,30.39,NNE,23,2.0,4.0,60,0.00,,,0.00,Wunderground v.1.15,2013-04-23 13:16:00,
2013-04-23 09:21:00,49.1,36.2,30.39,SE,135,2.0,2.0,61,0.00,,,0.00,Wunderground v.1.15,2013-04-23 13:21:00,
2013-04-23 09:26:00,49.7,36.4,30.39,NNW,333,1.0,4.0,60,0.00,,,0.00,Wunderground v.1.15,2013-04-23 13:26:00,
2013-04-23 09:31:00,49.6,35.8,30.39,NE,45,1.0,4.0,59,0.00,,,0.00,Wunderground v.1.15,2013-04-23 13:31:00,
2013-04-23 09:36:00,49.8,36.5,30.38,NNE,12,1.0,4.0,60,0.00,,,0.00,Wunderground v.1.15,2013-04-23 13:36:00,
2013-04-23 09:41:00,50.1,37.6,30.38,NE,46,1.0,4.0,62,0.00,,,0.00,Wunderground v.1.15,2013-04-23 13:41:00,
2013-04-23 09:46:00,50.5,36.7,30.38,NE,44,1.0,4.0,59,0.00,,,0.00,Wunderground v.1.15,2013-04-23 13:46:00,
2013-04-23 09:51:00,50.8,37.4,30.38,East,89,1.0,4.0,60,0.00,,,0.00,Wunderground v.1.15,2013-04-23 13:51:00,
2013-04-23 09:56:00,51.3,37.4,30.37,SSE,148,1.0,4.0,59,0.00,,,0.00,Wunderground v.1.15,2013-04-23 13:56:00,
2013-04-23 10:01:00,51.3,36.6,30.37,SSE,160,2.0,4.0,57,0.00,,,0.00,Wunderground v.1.15,2013-04-23 14:01:00,
2013-04-23 10:06:00,51.1,37.3,30.38,SSE,159,2.0,4.0,59,0.00,,,0.00,Wunderground v.1.15,2013-04-23 14:06:00,
2013-04-23 10:11:00,51.3,37.4,30.38,SE,127,2.0,2.0,59,0.00,,,0.00,Wunderground v.1.15,2013-04-23 14:11:00,
2013-04-23 10:16:00,51.6,37.7,30.38,NE,34,2.0,4.0,59,0.00,,,0.00,Wunderground v.1.15,2013-04-23 14:16:00,
2013-04-23 10:26:00,53.1,39.1,30.38,West,280,1.0,4.0,59,0.00,,,0.00,Wunderground v.1.15,2013-04-23 14:26:00,
2013-04-23 10:31:00,53.2,38.8,30.39,East,93,1.0,4.0,58,0.00,,,0.00,Wunderground v.1.15,2013-04-23 14:31:00,
2013-04-23 10:40:00,53.9,38.6,30.38,East,98,1.0,4.0,56,0.00,,,0.00,Wunderground v.1.15,2013-04-23 14:40:00,
2013-04-23 10:46:00,54.5,39.6,30.38,SE,143,1.0,4.0,57,0.00,,,0.00,Wunderground v.1.15,2013-04-23 14:46:00,
2013-04-23 10:51:00,55.6,40.1,30.38,East,89,1.0,4.0,56,0.00,,,0.00,Wunderground v.1.15,2013-04-23 14:51:00,
2013-04-23 10:56:00,56.1,41.5,30.38,SE,127,1.0,4.0,58,0.00,,,0.00,Wunderground v.1.15,2013-04-23 14:56:00,
2013-04-23 11:01:00,57.0,40.0,30.39,SE,135,1.0,4.0,53,0.00,,,0.00,Wunderground v.1.15,2013-04-23 15:01:00,
2013-04-23 11:06:00,57.0,39.5,30.38,SSE,152,2.0,4.0,52,0.00,,,0.00,Wunderground v.1.15,2013-04-23 15:06:00,
2013-04-23 11:16:00,57.2,39.2,30.38,SSE,163,2.0,4.0,51,0.00,,,0.00,Wunderground v.1.15,2013-04-23 15:16:00,
2013-04-23 11:21:00,57.6,41.1,30.38,ESE,105,2.0,2.0,54,0.00,,,0.00,Wunderground v.1.15,2013-04-23 15:21:00,
2013-04-23 11:26:00,58.4,39.8,30.38,SSE,147,2.0,4.0,50,0.00,,,0.00,Wunderground v.1.15,2013-04-23 15:26:00,
2013-04-23 11:31:00,58.6,40.5,30.38,SE,132,1.0,4.0,51,0.00,,,0.00,Wunderground v.1.15,2013-04-23 15:31:00,
2013-04-23 11:41:00,59.7,40.0,30.38,ESE,102,1.0,1.0,48,0.00,,,0.00,Wunderground v.1.15,2013-04-23 15:41:00,
2013-04-23 11:46:00,59.9,42.2,30.38,East,94,1.0,2.0,52,0.00,,,0.00,Wunderground v.1.15,2013-04-23 15:46:00,
2013-04-23 11:51:00,60.1,41.4,30.37,ESE,121,2.0,2.0,50,0.00,,,0.00,Wunderground v.1.15,2013-04-23 15:51:00,
2013-04-23 11:56:00,60.4,40.6,30.37,SE,124,2.0,2.0,48,0.00,,,0.00,Wunderground v.1.15,2013-04-23 15:56:00,
2013-04-23 12:06:00,60.7,41.9,30.37,West,280,1.0,3.0,50,0.00,,,0.00,Wunderground v.1.15,2013-04-23 16:06:00,
2013-04-23 12:11:00,61.1,41.8,30.37,ESE,104,1.0,2.0,49,0.00,,,0.00,Wunderground v.1.15,2013-04-23 16:11:00,
2013-04-23 12:21:00,61.4,42.6,30.36,NE,49,2.0,2.0,50,0.00,,,0.00,Wunderground v.1.15,2013-04-23 16:21:00,
2013-04-23 12:26:00,61.9,42.0,30.35,SSE,153,1.0,2.0,48,0.00,,,0.00,Wunderground v.1.15,2013-04-23 16:26:00,
2013-04-23 12:31:00,62.1,41.6,30.35,SSE,156,2.0,2.0,47,0.00,,,0.00,Wunderground v.1.15,2013-04-23 16:31:00,
2013-04-23 12:41:00,62.5,42.0,30.34,SSW,198,2.0,2.0,47,0.00,,,0.00,Wunderground v.1.15,2013-04-23 16:41:00,
2013-04-23 12:51:00,63.7,44.2,30.34,East,82,2.0,2.0,49,0.00,,,0.00,Wunderground v.1.15,2013-04-23 16:51:00,
2013-04-23 12:56:00,63.4,41.7,30.34,SSE,158,2.0,4.0,45,0.00,,,0.00,Wunderground v.1.15,2013-04-23 16:56:00,
2013-04-23 13:06:00,64.0,43.9,30.33,ESE,110,2.0,4.0,48,0.00,,,0.00,Wunderground v.1.15,2013-04-23 17:06:00,
2013-04-23 13:16:00,64.6,42.8,30.32,SSE,155,2.0,4.0,45,0.00,,,0.00,Wunderground v.1.15,2013-04-23 17:16:00,
2013-04-23 13:21:00,64.9,42.5,30.32,SSE,163,3.0,4.0,44,0.00,,,0.00,Wunderground v.1.15,2013-04-23 17:21:00,
2013-04-23 13:31:00,64.8,42.9,30.31,SE,132,2.0,3.0,45,0.00,,,0.00,Wunderground v.1.15,2013-04-23 17:31:00,
2013-04-23 13:36:00,65.5,43.6,30.31,SSE,147,2.0,3.0,45,0.00,,,0.00,Wunderground v.1.15,2013-04-23 17:36:00,
2013-04-23 13:46:00,66.5,43.3,30.31,ESE,117,2.0,2.0,43,0.00,,,0.00,Wunderground v.1.15,2013-04-23 17:46:00,
2013-04-23 13:51:00,66.2,41.8,30.31,ESE,118,2.0,2.0,41,0.00,,,0.00,Wunderground v.1.15,2013-04-23 17:51:00,
2013-04-23 14:01:00,66.7,44.7,30.30,East,98,2.0,2.0,45,0.00,,,0.00,Wunderground v.1.15,2013-04-23 18:01:00,
2013-04-23 14:06:00,66.6,42.2,30.30,SW,215,1.0,2.0,41,0.00,,,0.00,Wunderground v.1.15,2013-04-23 18:06:00,
2013-04-23 14:11:00,66.6,43.4,30.30,SSE,152,1.0,1.0,43,0.00,,,0.00,Wunderground v.1.15,2013-04-23 18:11:00,
2013-04-23 14:21:00,67.1,43.2,30.30,ESE,102,2.0,2.0,42,0.00,,,0.00,Wunderground v.1.15,2013-04-23 18:21:00,
2013-04-23 14:26:00,67.2,42.0,30.29,SSE,149,2.0,3.0,40,0.00,,,0.00,Wunderground v.1.15,2013-04-23 18:26:00,
2013-04-23 14:36:00,67.4,42.9,30.29,East,81,1.0,2.0,41,0.00,,,0.00,Wunderground v.1.15,2013-04-23 18:36:00,
2013-04-23 14:46:00,67.9,42.7,30.28,ENE,59,1.0,1.0,40,0.00,,,0.00,Wunderground v.1.15,2013-04-23 18:46:00,
2013-04-23 14:56:00,68.1,43.5,30.28,ENE,68,2.0,3.0,41,0.00,,,0.00,Wunderground v.1.15,2013-04-23 18:56:00,
2013-04-23 15:01:00,68.0,44.7,30.28,ESE,102,2.0,2.0,43,0.00,,,0.00,Wunderground v.1.15,2013-04-23 19:01:00,
2013-04-23 15:11:00,67.7,42.5,30.27,SE,132,3.0,3.0,40,0.00,,,0.00,Wunderground v.1.15,2013-04-23 19:11:00,
2013-04-23 15:16:00,67.9,44.6,30.27,SSE,149,3.0,3.0,43,0.00,,,0.00,Wunderground v.1.15,2013-04-23 19:16:00,
2013-04-23 15:21:00,68.4,45.0,30.27,SE,139,3.0,3.0,43,0.00,,,0.00,Wunderground v.1.15,2013-04-23 19:21:00,
2013-04-23 15:31:00,68.9,45.5,30.27,ENE,78,2.0,3.0,43,0.00,,,0.00,Wunderground v.1.15,2013-04-23 19:31:00,
2013-04-23 15:36:00,68.2,44.8,30.26,East,82,3.0,3.0,43,0.00,,,0.00,Wunderground v.1.15,2013-04-23 19:36:00,
2013-04-23 15:41:00,68.1,45.4,30.26,SSE,154,3.0,3.0,44,0.00,,,0.00,Wunderground v.1.15,2013-04-23 19:41:00,
2013-04-23 15:46:00,68.3,45.5,30.26,East,95,3.0,3.0,44,0.00,,,0.00,Wunderground v.1.15,2013-04-23 19:46:00,
2013-04-23 15:56:00,68.4,46.2,30.26,SE,124,2.0,3.0,45,0.00,,,0.00,Wunderground v.1.15,2013-04-23 19:56:00,
2013-04-23 16:01:00,68.4,45.6,30.25,ENE,78,2.0,3.0,44,0.00,,,0.00,Wunderground v.1.15,2013-04-23 20:01:00,
2013-04-23 16:11:00,68.1,45.4,30.25,SE,136,2.0,2.0,44,0.00,,,0.00,Wunderground v.1.15,2013-04-23 20:11:00,
2013-04-23 16:16:00,68.3,47.3,30.25,SE,129,2.0,2.0,47,0.00,,,0.00,Wunderground v.1.15,2013-04-23 20:16:00,
2013-04-23 16:26:00,68.0,46.4,30.25,ESE,118,3.0,4.0,46,0.00,,,0.00,Wunderground v.1.15,2013-04-23 20:26:00,
2013-04-23 16:36:00,68.1,45.4,30.24,East,101,3.0,3.0,44,0.00,,,0.00,Wunderground v.1.15,2013-04-23 20:36:00,
2013-04-23 16:46:00,67.6,46.1,30.24,East,96,2.0,3.0,46,0.00,,,0.00,Wunderground v.1.15,2013-04-23 20:46:00,
2013-04-23 16:51:00,67.5,44.8,30.23,SSE,156,3.0,3.0,44,0.00,,,0.00,Wunderground v.1.15,2013-04-23 20:51:00,
2013-04-23 17:01:00,68.1,45.4,30.23,SE,129,2.0,2.0,44,0.00,,,0.00,Wunderground v.1.15,2013-04-23 21:01:00,
2013-04-23 17:06:00,68.1,45.9,30.23,SE,146,2.0,2.0,45,0.00,,,0.00,Wunderground v.1.15,2013-04-23 21:06:00,
2013-04-23 17:16:00,67.9,45.8,30.23,South,177,2.0,2.0,45,0.00,,,0.00,Wunderground v.1.15,2013-04-23 21:16:00,
2013-04-23 17:21:00,68.2,45.4,30.23,SE,141,1.0,1.0,44,0.00,,,0.00,Wunderground v.1.15,2013-04-23 21:21:00,
2013-04-23 17:26:00,68.3,46.1,30.23,SE,146,2.0,2.0,45,0.00,,,0.00,Wunderground v.1.15,2013-04-23 21:26:00,
2013-04-23 17:31:00,68.5,46.3,30.23,SSE,155,2.0,2.0,45,0.00,,,0.00,Wunderground v.1.15,2013-04-23 21:31:00,
2013-04-23 17:41:00,67.7,43.8,30.23,SE,143,1.0,2.0,42,0.00,,,0.00,Wunderground v.1.15,2013-04-23 21:41:00,
2013-04-23 17:46:00,67.4,44.1,30.23,East,100,2.0,3.0,43,0.00,,,0.00,Wunderground v.1.15,2013-04-23 21:46:00,
2013-04-23 17:56:00,66.7,44.7,30.23,ESE,111,2.0,3.0,45,0.00,,,0.00,Wunderground v.1.15,2013-04-23 21:56:00,
2013-04-23 18:01:00,66.3,44.9,30.23,SE,146,2.0,2.0,46,0.00,,,0.00,Wunderground v.1.15,2013-04-23 22:01:00,
2013-04-23 18:06:00,66.1,44.7,30.23,SSE,166,2.0,2.0,46,0.00,,,0.00,Wunderground v.1.15,2013-04-23 22:06:00,
2013-04-23 18:16:00,65.9,44.5,30.24,SE,146,2.0,2.0,46,0.00,,,0.00,Wunderground v.1.15,2013-04-23 22:16:00,
2013-04-23 18:21:00,65.6,44.8,30.24,WSW,246,2.0,2.0,47,0.00,,,0.00,Wunderground v.1.15,2013-04-23 22:21:00,
2013-04-23 18:26:00,65.2,44.5,30.24,ESE,108,2.0,2.0,47,0.00,,,0.00,Wunderground v.1.15,2013-04-23 22:26:00,
2013-04-23 18:31:00,64.9,44.7,30.24,SSE,153,2.0,2.0,48,0.00,,,0.00,Wunderground v.1.15,2013-04-23 22:31:00,
2013-04-23 18:41:00,64.1,44.5,30.23,SE,128,2.0,2.0,49,0.00,,,0.00,Wunderground v.1.15,2013-04-23 22:41:00,
2013-04-23 18:46:00,63.9,44.9,30.23,SE,144,2.0,2.0,50,0.00,,,0.00,Wunderground v.1.15,2013-04-23 22:46:00,
2013-04-23 18:56:00,63.5,44.5,30.23,ESE,111,2.0,3.0,50,0.00,,,0.00,Wunderground v.1.15,2013-04-23 22:56:00,
2013-04-23 19:01:00,63.4,44.9,30.23,SE,124,2.0,2.0,51,0.00,,,0.00,Wunderground v.1.15,2013-04-23 23:01:00,
2013-04-23 19:11:00,63.2,44.2,30.24,SSE,159,1.0,2.0,50,0.00,,,0.00,Wunderground v.1.15,2013-04-23 23:11:00,
2013-04-23 19:16:00,62.9,44.5,30.24,SSE,156,1.0,2.0,51,0.00,,,0.00,Wunderground v.1.15,2013-04-23 23:16:00,
2013-04-23 19:21:00,62.6,44.2,30.23,SSE,156,2.0,2.0,51,0.00,,,0.00,Wunderground v.1.15,2013-04-23 23:21:00,
2013-04-23 19:31:00,62.0,44.2,30.23,SSE,162,1.0,1.0,52,0.00,,,0.00,Wunderground v.1.15,2013-04-23 23:31:00,
2013-04-23 19:36:00,61.6,44.3,30.23,SE,145,1.0,1.0,53,0.00,,,0.00,Wunderground v.1.15,2013-04-23 23:36:00,
2013-04-23 19:41:00,61.3,44.5,30.23,SE,125,0.0,0.0,54,0.00,,,0.00,Wunderground v.1.15,2013-04-23 23:41:00,
2013-04-23 19:46:00,61.1,44.3,30.23,East,83,0.0,0.0,54,0.00,,,0.00,Wunderground v.1.15,2013-04-23 23:46:00,
2013-04-23 19:56:00,60.7,44.4,30.23,SSE,152,1.0,2.0,55,0.00,,,0.00,Wunderground v.1.15,2013-04-23 23:56:00,
2013-04-23 20:01:00,60.5,44.2,30.23,SE,132,1.0,1.0,55,0.00,,,0.00,Wunderground v.1.15,2013-04-24 00:01:00,
2013-04-23 20:11:00,60.1,43.9,30.23,ESE,114,0.0,0.0,55,0.00,,,0.00,Wunderground v.1.15,2013-04-24 00:11:00,
2013-04-23 20:16:00,59.8,44.5,30.24,SE,146,0.0,0.0,57,0.00,,,0.00,Wunderground v.1.15,2013-04-24 00:16:00,
2013-04-23 20:26:00,59.2,44.9,30.24,East,79,0.0,0.0,59,0.00,,,0.00,Wunderground v.1.15,2013-04-24 00:26:00,
2013-04-23 20:31:00,58.7,45.3,30.24,ENE,77,0.0,0.0,61,0.00,,,0.00,Wunderground v.1.15,2013-04-24 00:31:00,
2013-04-23 20:36:00,58.4,44.6,30.24,ENE,77,0.0,0.0,60,0.00,,,0.00,Wunderground v.1.15,2013-04-24 00:36:00,
2013-04-23 20:41:00,58.2,43.9,30.24,ENE,77,0.0,0.0,59,0.00,,,0.00,Wunderground v.1.15,2013-04-24 00:41:00,
2013-04-23 20:51:00,57.8,44.4,30.25,WSW,240,0.0,0.0,61,0.00,,,0.00,Wunderground v.1.15,2013-04-24 00:51:00,
2013-04-23 20:56:00,57.6,44.2,30.25,WSW,240,0.0,0.0,61,0.00,,,0.00,Wunderground v.1.15,2013-04-24 00:56:00,
2013-04-23 21:01:00,57.5,44.6,30.25,WSW,245,0.0,0.0,62,0.00,,,0.00,Wunderground v.1.15,2013-04-24 01:01:00,
2013-04-23 21:11:00,57.1,44.2,30.25,West,263,0.0,0.0,62,0.00,,,0.00,Wunderground v.1.15,2013-04-24 01:11:00,
2013-04-23 21:16:00,57.1,44.6,30.25,West,262,0.0,0.0,63,0.00,,,0.00,Wunderground v.1.15,2013-04-24 01:16:00,
2013-04-23 21:26:00,56.9,44.4,30.25,West,262,0.0,0.0,63,0.00,,,0.00,Wunderground v.1.15,2013-04-24 01:26:00,
2013-04-23 21:31:00,56.8,44.7,30.25,West,262,0.0,0.0,64,0.00,,,0.00,Wunderground v.1.15,2013-04-24 01:31:00,
2013-04-23 21:41:00,56.6,44.6,30.25,West,262,0.0,0.0,64,0.00,,,0.00,Wunderground v.1.15,2013-04-24 01:41:00,
2013-04-23 21:46:00,56.5,44.9,30.25,West,262,0.0,0.0,65,0.00,,,0.00,Wunderground v.1.15,2013-04-24 01:46:00,
2013-04-23 21:51:00,56.4,44.8,30.25,NW,321,0.0,0.0,65,0.00,,,0.00,Wunderground v.1.15,2013-04-24 01:51:00,
2013-04-23 22:01:00,56.0,44.8,30.25,NW,320,0.0,0.0,66,0.00,,,0.00,Wunderground v.1.15,2013-04-24 02:01:00,
2013-04-23 22:06:00,55.7,44.9,30.25,NW,321,0.0,0.0,67,0.00,,,0.00,Wunderground v.1.15,2013-04-24 02:06:00,
2013-04-23 22:11:00,55.6,45.2,30.26,NW,319,0.0,0.0,68,0.00,,,0.00,Wunderground v.1.15,2013-04-24 02:11:00,
2013-04-23 22:21:00,55.4,45.4,30.26,West,278,0.0,0.0,69,0.00,,,0.00,Wunderground v.1.15,2013-04-24 02:21:00,
2013-04-23 22:26:00,55.4,45.4,30.26,West,278,0.0,0.0,69,0.00,,,0.00,Wunderground v.1.15,2013-04-24 02:26:00,
2013-04-23 22:31:00,55.4,45.4,30.26,West,278,0.0,0.0,69,0.00,,,0.00,Wunderground v.1.15,2013-04-24 02:31:00,
2013-04-23 22:41:00,55.3,45.3,30.26,West,274,0.0,0.0,69,0.00,,,0.00,Wunderground v.1.15,2013-04-24 02:41:00,
2013-04-23 22:46:00,55.2,45.6,30.26,West,260,0.0,0.0,70,0.00,,,0.00,Wunderground v.1.15,2013-04-24 02:46:00,
2013-04-23 22:56:00,55.1,45.5,30.25,NE,34,0.0,0.0,70,0.00,,,0.00,Wunderground v.1.15,2013-04-24 02:56:00,
2013-04-23 23:01:00,55.1,45.1,30.25,NE,34,0.0,0.0,69,0.00,,,0.00,Wunderground v.1.15,2013-04-24 03:01:00,
2013-04-23 23:06:00,54.9,45.3,30.25,NNW,339,0.0,0.0,70,0.00,,,0.00,Wunderground v.1.15,2013-04-24 03:06:00,
2013-04-23 23:16:00,54.5,45.3,30.25,WNW,302,0.0,0.0,71,0.00,,,0.00,Wunderground v.1.15,2013-04-24 03:16:00,
2013-04-23 23:21:00,54.8,45.2,30.25,NW,312,0.0,0.0,70,0.00,,,0.00,Wunderground v.1.15,2013-04-24 03:21:00,
2013-04-23 23:26:00,55.1,45.1,30.25,NW,319,0.0,0.0,69,0.00,,,0.00,Wunderground v.1.15,2013-04-24 03:26:00,
2013-04-23 23:36:00,55.0,45.0,30.25,NNW,335,0.0,0.0,69,0.00,,,0.00,Wunderground v.1.15,2013-04-24 03:36:00,
2013-04-23 23:41:00,55.1,45.1,30.25,NW,320,0.0,0.0,69,0.00,,,0.00,Wunderground v.1.15,2013-04-24 03:41:00,
2013-04-23 23:46:00,55.1,45.1,30.25,West,267,0.0,0.0,69,0.00,,,0.00,Wunderground v.1.15,2013-04-24 03:46:00,
2013-04-23 23:56:00,54.7,45.1,30.25,WSW,253,0.0,0.0,70,0.00,,,0.00,Wunderground v.1.15,2013-04-24 03:56:00,